Content
SEND FEEDBACK

Daily
Averages
Monthly
Summary
United States of America

GRATON, CALIFORNIA


Home > North America > United States > California
Elevation: 272 feet     Latitude: 38 26N     Longitude: 122 53W

WEATHER
 
SELECT A DAY
Number of Records: 201,797;   Date Range: 1/1/95 - 9/3/14
 
SHARE

PRINT THIS DATA

[ ← Previous Day ]
WEATHER ALMANAC - FEBRUARY 13, 2013
[ Next Day → ]
[ °C ]   °F
Weather ElementAverageHighLow
Temperature41.2 °F66 °F (2:53 pm)30.2 °F (5:56 am)
Dewpoint35.9 °F44.1 °F (12:53 pm)28.4 °F (5:56 am)
Humidity83.8 %100 % (3:44 am)43 % (2:53 pm)
Barometer30.28 in30.33 in (2:18 am)30.19 in (3:53 pm)
Wind Speed1.2 mph8.1 mph (3:53 pm)
Weather ElementAverage
Visibility5 mi
Wind DirectionNNE (37.9 °)

Weather ElementTotal
Precipitation---
Heating Degree Days16.9 (Base 65)
Averaged from 42 records on February 13, 2013
WEATHER CONDITIONS BREAKOUT
WIND DIRECTION BREAKOUT
WEATHER BY HOUR - FEBRUARY 13, 2013
[ °C ]   °F
Local TimeTemperatureDewpointHumidityBarometerVisibilityWind DirectionWind SpeedGust SpeedPrecipitationEventsConditions
1:53 AM37.0 °F35.1 °F93 %30.31 in6.0 miCalmClear
2:18 AM35.6 °F33.8 °F93 %30.33 in1.2 miCalmClear
2:26 AM35.6 °F33.8 °F93 %30.32 in0.5 miCalmFogFog
2:37 AM35.6 °F33.8 °F93 %30.32 in2.0 miCalmClear
2:49 AM35.6 °F33.8 °F93 %30.32 in0.8 miCalmClear
2:53 AM35.1 °F33.1 °F92 %30.30 in0.5 miCalmFogFog
3:00 AM35.6 °F33.8 °F93 %30.32 in0.2 miCalmFogFog
3:08 AM35.6 °F33.8 °F93 %30.32 in0.5 miWNW (290°)3.5 mphFogFog
3:27 AM35.6 °F33.8 °F93 %30.31 in0.2 miCalmFogFog
3:44 AM33.8 °F33.8 °F100 %30.31 in0.5 miCalmFogFog
3:50 AM33.8 °F33.8 °F100 %30.31 in1.5 miCalmPartly Cloudy
3:53 AM34.0 °F33.1 °F96 %30.29 in3.0 miCalmPartly Cloudy
4:07 AM33.8 °F32.0 °F93 %30.31 in1.8 miCalmScattered Clouds
4:33 AM32.0 °F30.2 °F93 %30.32 in0.8 miCalmMist
4:53 AM33.1 °F32.0 °F96 %30.30 in0.5 miCalmFogFog
5:09 AM33.8 °F30.2 °F87 %30.32 in1.5 miCalmScattered Clouds
5:11 AM33.8 °F30.2 °F87 %30.32 in3.0 miCalmScattered Clouds
5:53 AM30.9 °F28.9 °F92 %30.30 in1.5 miCalmPartly Cloudy
5:56 AM30.2 °F28.4 °F93 %30.32 in0.8 miCalmMist
6:15 AM33.8 °F30.2 °F87 %30.32 in1.2 miCalmScattered Clouds
6:19 AM33.8 °F30.2 °F87 %30.32 in4.0 miCalmPartly Cloudy
6:53 AM30.9 °F28.9 °F92 %30.31 in10.0 miWest (260°)3.5 mphFogPatches of Fog
7:53 AM32.0 °F30.9 °F96 %30.32 in10.0 miCalmFogPatches of Fog
8:53 AM39.0 °F37.0 °F93 %30.32 in10.0 miCalmFogPatches of Fog
9:53 AM46.9 °F39.9 °F77 %30.33 in10.0 miCalmClear
10:53 AM52.0 °F42.1 °F69 %30.32 in10.0 miCalmClear
11:53 AM57.0 °F42.1 °F57 %30.30 in10.0 miCalmClear
12:53 PM62.1 °F44.1 °F52 %30.26 in10.0 miSouth (170°)4.6 mphClear
1:53 PM64.9 °F44.1 °F47 %30.22 in10.0 miSE (140°)3.5 mphClear
2:53 PM66.0 °F43.0 °F43 %30.20 in10.0 miSE (130°)6.9 mphClear
3:53 PM64.0 °F44.1 °F48 %30.19 in10.0 miSSE (150°)8.1 mphClear
4:53 PM60.1 °F42.1 °F51 %30.19 in10.0 miSSE (160°)8.1 mphClear
5:53 PM52.0 °F42.1 °F69 %30.19 in10.0 miSSE (150°)6.9 mphClear
6:53 PM48.9 °F41.0 °F74 %30.19 in10.0 miSE (140°)3.5 mphClear
7:53 PM46.9 °F39.9 °F77 %30.20 in10.0 miCalmClear
8:53 PM46.0 °F41.0 °F83 %30.20 in10.0 miCalmClear
9:53 PM43.0 °F39.0 °F86 %30.21 in10.0 miCalmClear
10:53 PM41.0 °F37.9 °F89 %30.21 in9.0 miCalmClear
11:36 PM39.2 °F37.4 °F93 %30.23 in3.0 miCalmScattered Clouds
11:44 PM39.2 °F37.4 °F93 %30.23 in2.0 miCalmScattered Clouds
11:53 PM39.9 °F37.0 °F89 %30.21 in4.0 miCalmPartly Cloudy
11:58 PM39.2 °F37.4 °F93 %30.23 in1.0 miCalmMist
Hourly data recorded from KSTS, located miles away from Graton, California







STORIES FROM OUR PARTNERS